STARLINK-5247, 54203

Orbit data source: Space-Track

STARLINK-5247, 54203 is a payload satellite owned by SpaceX/Seattle (US) in LEO that was launched on Fri, 28 Oct 2022 UTC via an FALCON 9 launch vehicle from the Air Force Western Test Range (AFWTR). Payload-class satellites include a variety of spacecraft equipped with specific instruments for various scientific and technological missions. These include communications satellites like Starlink; space stations such as the ISS; scientific satellites like the Hubble; Earth observation satellites from companies like Planet Labs, Umbra, and HawkEye 360; GPS; miniature CubeSats for education and research; and military/defense satellites.

Loading next visibility...
Identifier
54203, 2022-141AY
Orbit
LEO
Country
Flag of USUS
Related business
Manufacturer
SpaceX/Seattle
Mission
Operational Commercial Communications
Bus & Motor
STARLINK, Unknown motor
Mass
305 kg wet, ~290 kg dry
Launch date (UTC)
2022-10-28 (4 years ago)
Launch vehicle
FALCON 9
Launch site
Air Force Western Test Range (AFWTR)
Object type
Payload
Rocket body
Debris
Shape & HBR
Box + 1 Pan, 10.1 m
Radar Cross Section
13.562 m², Large (>1 m²)

Expand to show TLE details & history
Last TLE update: 2 days ago

TLE from 2 days ago
0 STARLINK-5247
1 54203U 22141AY  26171.44794601  .00000425  00000-0  44757-4 0  9998
2 54203  53.1589 252.5098 0000232  38.5660 321.5347 15.08836312201514
Epoch: 2026-06-20T10:45Z
TLE epoch observation values (Epoch: 2026-06-20T10:45:02.535Z)
Latitude
-0.00009°
Longitude
-177.41326°
Altitude
540.52 km
Speed
7.593 km/s
True Right ascension
16h 50m 02s
True Declination
0° 00' 00"
Sunlit
Object was in full shadow at epoch
Visualization orbit readout
Latitude
Unknown
Longitude
Unknown
Altitude
Unknown
Speed
Unknown
Apparent Right ascension
Unknown
Apparent Declination
Unknown
Sunlit
N/A
Visualization observer readout
Local Sidereal Time
23:09:16
Azimuth
Unknown
Elevation
Unknown
Doppler factor
Unknown
Orbital elements
Apogee altitude
540.169 km
Perigee altitude
539.848 km
Semi-major axis
6,918.146 km
Eccentricity
0.00002
Inclination
53.1589°
RAAN
252.5098°
Arg. of periapsis
38.566°
True anomaly
321.53305°
Mean anomaly
321.5347°
Eccentric anomaly
321.53387°
Mean motion
3.77189 °/min
Orbital period
95.44 mins
BSTAR
0.000044757
Loading maneuver chart data...
Computing Atmospheric mass density...

Documentation

Showing up to 5 results
|